K5EBQ Weather Reports


Display with metric or nautical units.
time (UTC)temp
F
wind
direction
speed
MPH
gust
MPH
rain 1hr
in
rain 24hr
in
rain mn
in
humidity
%
barometer
mb
20260505111600 72 200 0.0 0.0 0.00 0.00 0.00 92 1006.1
20260505110116 72 190 0.0 0.0 0.00 0.00 0.00 92 1006.0
20260505101550 71 167 0.0 0.0 0.00 0.00 0.00 92 1006.1
20260505100049 71 204 0.0 0.0 0.00 0.00 0.00 92 1006.3
20260505094547 71 204 0.0 0.0 0.00 0.00 0.00 91 1006.3
20260505093046 71 207 0.0 0.0 0.00 0.00 0.00 91 1006.3
20260505091544 71 207 0.0 0.0 0.00 0.00 0.00 90 1006.5
20260505090044 71 207 0.0 0.0 0.00 0.00 0.00 90 1006.6
20260505084543 71 203 0.0 0.0 0.00 0.00 0.00 90 1006.6
20260505083042 71 203 0.0 0.0 0.00 0.00 0.00 90 1006.7
20260505081544 71 203 0.0 0.0 0.00 0.00 0.00 89 1006.9
20260505080044 71 196 0.0 0.0 0.00 0.00 0.00 88 1006.9
20260505074537 72 209 0.0 5.0 0.00 0.00 0.00 88 1007.1
20260505073044 72 221 0.0 0.0 0.00 0.00 0.00 88 1007.0
20260505071547 72 86 0.0 7.0 0.00 0.00 0.00 87 1007.2
20260505070033 72 234 2.0 10.0 0.00 0.00 0.00 87 1007.2
20260505064531 72 198 0.0 7.0 0.00 0.00 0.00 86 1007.4
20260505063028 72 231 0.0 8.0 0.00 0.00 0.00 86 1007.7
20260505061526 72 198 0.0 0.0 0.00 0.00 0.00 86 1007.9
20260505060025 72 167 0.0 0.0 0.00 0.00 0.00 85 1008.0
20260505054532 72 168 0.0 5.0 0.00 0.00 0.00 85 1008.0
20260505053029 72 144 0.0 0.0 0.00 0.00 0.00 84 1008.2
20260505051533 72 217 0.0 0.0 0.00 0.00 0.00 84 1008.4
20260505041518 73 172 0.0 0.0 0.00 0.00 0.00 81 1008.3
20260505040032 73 149 0.0 5.0 0.00 0.00 0.00 80 1008.6
20260505034516 73 134 1.0 8.0 0.00 0.00 0.00 80 1008.6
20260505033019 73 197 2.0 7.0 0.00 0.00 0.00 79 1008.8
20260505031515 74 175 2.0 50.0 0.00 0.00 0.00 78 1008.6
20260505030024 74 190 4.0 20.0 0.00 0.00 0.00 78 1008.6
20260505024514 74 236 0.0 17.0 0.00 0.00 0.00 78 1008.7
20260505023018 74 188 0.0 16.0 0.00 0.00 0.00 77 1008.6
20260505021514 75 162 0.0 7.0 0.00 0.00 0.00 76 1008.4
20260505020013 75 215 3.0 10.0 0.00 0.00 0.00 76 1008.3
20260505014512 75 168 1.0 14.0 0.00 0.00 0.00 75 1008.3
20260505013012 76 178 0.0 0.0 0.00 0.00 0.00 74 1008.1
20260505011514 76 139 0.0 0.0 0.00 0.00 0.00 74 1008.0
20260505010011 76 204 0.0 0.0 0.00 0.00 0.00 73 1008.1
20260505004510 77 209 0.0 5.0 0.00 0.00 0.00 72 1008.0
20260505003011 77 201 2.0 7.0 0.00 0.00 0.00 71 1007.9
20260505001508 78 148 0.0 4.0 0.00 0.00 0.00 71 1007.9
20260505000008 78 227 3.0 10.0 0.00 0.00 0.00 70 1008.0
20260504234507 78 215 4.0 10.0 0.00 0.00 0.00 69 1008.0
20260504233010 79 191 3.0 23.0 0.00 0.00 0.00 68 1008.3
20260504231503 79 169 3.0 20.0 0.00 0.00 0.00 69 1008.4
20260504230003 79 177 1.0 34.0 0.00 0.00 0.00 68 1008.5
20260504224500 80 170 4.0 41.0 0.00 0.00 0.00 67 1008.6
20260504223100 80 205 8.0 23.0 0.00 0.00 0.00 67 1008.7
20260504221558 80 107 3.0 30.0 0.00 0.00 0.00 66 1008.9
20260504220118 80 225 10.0 25.0 0.00 0.00 0.00 64 1008.9
20260504214558 81 224 10.0 41.0 0.00 0.00 0.00 61 1009.1
20260504213059 81 183 33.0 105.0 0.00 0.00 0.00 61 1009.2
20260504211556 82 227 11.0 26.0 0.00 0.00 0.00 60 1009.3
20260504210053 82 195 0.0 29.0 0.00 0.00 0.00 59 1009.4
20260504204550 83 206 12.0 44.0 0.00 0.00 0.00 58 1009.7
20260504203050 82 209 19.0 32.0 0.00 0.00 0.00 58 1009.7
20260504201548 83 206 8.0 29.0 0.00 0.00 0.00 58 1010.1
20260504200050 83 189 2.0 38.0 0.00 0.00 0.00 58 1010.5
20260504194546 83 171 18.0 48.0 0.00 0.00 0.00 55 1010.6
20260504193041 81 217 21.0 73.0 0.00 0.00 0.00 58 1010.9
20260504191551 82 202 13.0 29.0 0.00 0.00 0.00 57 1011.1
20260504190043 82 222 11.0 24.0 0.00 0.00 0.00 57 1011.2
20260504184543 82 235 32.0 72.0 0.00 0.00 0.00 57 1011.5
20260504183041 82 238 27.0 42.0 0.00 0.00 0.00 56 1011.6
20260504181531 81 157 19.0 47.0 0.00 0.00 0.00 58 1011.7
20260504180029 81 192 13.0 31.0 0.00 0.00 0.00 58 1011.9
20260504174526 81 205 25.0 32.0 0.00 0.00 0.00 58 1012.1
20260504173026 80 146 15.0 29.0 0.00 0.00 0.00 58 1012.3
20260504171521 79 227 11.0 33.0 0.00 0.00 0.00 61 1012.7
20260504150103 75 225 2.0 47.0 0.00 0.00 0.00 66 1013.6